[[{"header":{"parameterUnit":"m.s-1","parameterCategory":1,"la1":30.2991,"la2":30.254,"lo1":-89.0895,"lo2":-89.0444,"dy":0.0017,"dx":0.0017,"nx":28,"ny":28,"refTime":"2025-04-30T03:00:00:Z","depth":0,"parameterNumber":2,"parameterNumberName":"U-component_of_WINDS"},"data":[0,0,0,0,0,0,0,0,0,0,0,0,0,0,0,0,0,0,0,0,0,0,0,0,0,0,0,0,0,0,0,0,0,0,0,0,0,0,0,0,0,0,0,0,0,0,0,0,0,0,0,0,0,0,0,0,0,0,-1.8777,-1.8776,0,-1.8748,-1.8748,-1.8748,-1.8713,-1.8713,-1.8712,-1.8712,-1.8682,-1.8682,-1.8681,0,0,0,0,0,0,0,0,0,0,0,0,0,-1.8801,-1.8801,-1.8777,-1.8776,-1.8776,-1.8748,-1.8748,-1.8748,-1.8714,-1.8713,-1.8712,-1.8712,-1.8682,-1.8682,-1.8681,0,0,0,0,0,0,0,0,0,0,0,0,0,-1.8783,-1.8801,-1.8777,-1.8756,-1.8754,-1.8749,-1.8748,-1.8748,-1.8714,-1.8713,-1.8712,-1.8711,-1.8682,-1.8682,-1.8681,-1.8695,0,0,-1.868,-1.868,0,0,0,0,0,0,0,0,-1.8784,-1.8783,-1.8759,-1.8757,-1.8755,-1.8734,-1.8746,-1.873,-1.8714,-1.8729,-1.8712,-1.8711,-1.87,-1.8698,-1.8694,-1.8693,-1.8692,-1.868,-1.868,-1.8679,-1.8679,0,0,0,0,0,0,0,-1.8786,-1.8784,-1.8765,-1.8759,-1.8756,-1.8748,-1.8744,-1.8742,-1.8719,-1.8727,-1.8725,-1.8722,-1.8698,-1.8695,-1.8693,-1.8691,-1.868,-1.868,-1.8679,-1.8679,-1.87,-1.8701,0,0,0,0,0,0,-1.879,-1.8785,-1.8766,-1.8765,-1.8768,-1.8748,-1.8744,-1.8741,-1.8719,-1.8715,-1.8723,-1.8721,-1.8696,-1.8694,-1.8692,-1.8706,-1.8679,-1.8679,-1.8679,-1.8699,-1.87,-1.8701,0,0,0,0,0,0,-1.8791,-1.8789,-1.8768,-1.8774,-1.8771,-1.8748,-1.8745,-1.8741,-1.8737,-1.8716,-1.8711,-1.8723,-1.8695,-1.8693,-1.8694,-1.8704,-1.8679,-1.8678,-1.8698,-1.8699,-1.87,-1.8734,0,0,0,0,0,0,-1.8792,-1.8789,-1.8794,-1.8774,-1.877,-1.877,-1.8746,-1.8741,-1.8737,-1.8734,-1.8715,-1.8711,-1.8694,-1.8695,-1.8694,-1.8703,-1.8678,-1.8697,-1.8699,-1.87,-1.8732,-1.8736,-1.874,0,0,0,0,0,-1.8793,-1.8804,-1.8795,-1.8792,-1.8776,-1.8771,-1.8769,-1.875,-1.8738,-1.8742,-1.8728,-1.8712,-1.8704,-1.8696,-1.8694,-1.8703,-1.8696,-1.8698,-1.87,-1.873,-1.8735,-1.874,0,0,0,0,0,0,-1.8825,-1.8801,-1.879,-1.8796,-1.8786,-1.8765,-1.877,-1.8756,-1.8749,-1.8746,-1.8722,-1.8719,-1.8723,-1.8713,-1.8705,-1.8715,-1.8698,-1.8699,-1.8721,-1.8726,-1.873,-1.8732,-1.8678,0,0,0,0,0,-1.8834,-1.8832,-1.8811,-1.8818,-1.8813,-1.8793,-1.879,-1.8776,-1.8765,-1.876,-1.8746,-1.8736,-1.8731,-1.8728,-1.8722,-1.873,-1.8726,-1.8736,-1.874,-1.8744,-1.8745,-1.8749,-1.8753,-1.8707,-1.8707,-1.8707,0,0,-1.885,-1.8836,-1.8836,-1.8824,-1.8814,-1.8813,-1.8789,-1.8789,-1.8787,-1.876,-1.876,-1.875,-1.8737,-1.8742,-1.8743,-1.8734,-1.8757,-1.8746,-1.8749,-1.8748,-1.8751,-1.8755,-1.8759,-1.8708,-1.8708,-1.8708,0,0,-1.8878,-1.8868,-1.8873,-1.8864,-1.885,-1.8837,-1.8838,-1.882,-1.8812,-1.8812,-1.8792,-1.879,-1.8782,-1.8773,-1.8768,-1.8794,-1.8778,-1.8793,-1.8814,-1.8818,-1.8821,-1.8824,-1.8833,-1.8837,-1.8795,-1.8795,-1.8795,0,-1.89,-1.8897,-1.8877,-1.8878,-1.8873,-1.8849,-1.8853,-1.8846,-1.8831,-1.8828,-1.8818,-1.8808,-1.8797,-1.88,-1.8806,-1.8803,-1.8803,-1.8795,-1.8822,-1.8825,-1.8828,-1.8836,-1.884,-1.8797,-1.8796,-1.8796,-1.8796,0,-1.8925,-1.8923,-1.8928,-1.8915,-1.891,-1.8913,-1.8894,-1.8892,-1.8879,-1.8867,-1.8867,-1.8854,-1.8845,-1.8845,-1.8832,-1.8846,-1.884,-1.8827,-1.8808,-1.8834,-1.8842,-1.8845,-1.8799,-1.8799,-1.8798,-1.8798,0,0,-1.8972,-1.8948,-1.8951,-1.8944,-1.8927,-1.8926,-1.8927,-1.8919,-1.8918,-1.8909,-1.8909,-1.8904,-1.8891,-1.8885,-1.8871,-1.8875,-1.8896,-1.886,-1.886,-1.8867,-1.891,-1.892,-1.8924,-1.8886,-1.8886,-1.8887,-1.8911,0,-1.8998,-1.8999,-1.8981,-1.8988,-1.8986,-1.8963,-1.8965,-1.8955,-1.8943,-1.894,-1.8927,-1.8924,-1.8908,-1.8904,-1.8906,-1.8893,-1.8904,-1.8891,-1.8886,-1.8886,-1.8889,-1.8928,-1.8938,-1.8962,-1.8914,-1.8914,-1.8915,0,-1.9027,-1.902,-1.9026,-1.9009,-1.9007,-1.9009,-1.9,-1.8997,-1.8986,-1.8977,-1.8971,-1.8955,-1.8956,-1.8939,-1.8939,-1.8931,-1.8928,-1.8921,-1.8921,-1.892,-1.8901,-1.8927,-1.8969,-1.8972,-1.8919,-1.8919,-1.8919,0,-1.9061,-1.9052,-1.9055,-1.905,-1.9031,-1.9032,-1.9024,-1.9012,-1.9008,-1.9001,-1.8998,-1.899,-1.8986,-1.8981,-1.8963,-1.8953,-1.8966,-1.8948,-1.8958,-1.8959,-1.8961,-1.8961,-1.9003,-1.896,-1.896,-1.896,-1.896,0,-1.909,-1.9095,-1.907,-1.9071,-1.9076,-1.9056,-1.9061,-1.9051,-1.904,-1.9039,-1.9019,-1.9019,-1.8996,-1.8993,-1.898,-1.8982,-1.898,-1.8973,-1.8969,-1.8975,-1.8975,-1.8972,-1.8969,-1.8961,-1.8961,-1.8961,-1.8961,0,-1.9129,-1.9112,-1.9113,-1.9095,-1.9091,-1.9095,-1.9079,-1.9079,-1.9067,-1.9066,-1.9065,-1.9046,-1.9041,-1.9024,-1.9015,-1.9006,-1.9012,-1.9005,-1.9016,-1.9014,-1.9025,-1.9024,-1.9066,-1.907,-1.9025,-1.9026,-1.9026,0,-1.9148,-1.9151,-1.9134,-1.9132,-1.9124,-1.9122,-1.9118,-1.9098,-1.9095,-1.9082,-1.9085,-1.9079,-1.9073,-1.9067,-1.9052,-1.9045,-1.9038,-1.9053,-1.9036,-1.9042,-1.9037,-1.9037,-1.9037,-1.9056,-1.9056,-1.9057,-1.9057,0,-1.9185,-1.9177,-1.9172,-1.9165,-1.9161,-1.9154,-1.9146,-1.9145,-1.9124,-1.9121,-1.9117,-1.9112,-1.9103,-1.9098,-1.9089,-1.908,-1.9065,-1.9063,-1.9065,-1.907,-1.9076,-1.9072,-1.9025,-1.9062,-1.9061,-1.9061,-1.9061,-1.906,-1.9214,-1.9216,-1.9204,-1.9199,-1.9191,-1.9184,-1.9184,-1.9172,-1.9168,-1.9159,-1.9148,-1.9145,-1.9133,-1.9119,-1.9112,-1.9109,-1.9101,-1.9104,-1.9105,-1.9106,-1.9108,-1.9077,-1.9108,-1.9108,-1.9108,-1.9107,-1.9107,0,-1.925,-1.9241,-1.9237,-1.9226,-1.9223,-1.9209,-1.92,-1.9198,-1.9195,-1.9186,-1.9181,-1.9175,-1.917,-1.9155,-1.9148,-1.9149,-1.9141,-1.9147,-1.9147,-1.9145,-1.9116,-1.9115,-1.9153,-1.9153,-1.9153,-1.9153,-1.9153,-1.9153,-1.9268,-1.927,-1.926,-1.9258,-1.9249,-1.9246,-1.9241,-1.9235,-1.9227,-1.9222,-1.9218,-1.9208,-1.9196,-1.9188,-1.9183,-1.9179,-1.9177,-1.9185,-1.9178,-1.9151,-1.9147,-1.9143,-1.9142,-1.9185,-1.9185,-1.9207,-1.9207,-1.9208]},{"header":{"parameterUnit":"m.s-1","parameterCategory":1,"la1":30.2991,"la2":30.254,"lo1":-89.0895,"lo2":-89.0444,"dy":0.0017,"dx":0.0017,"nx":28,"ny":28,"refTime":"2025-04-30T03:00:00:Z","depth":0,"parameterNumber":3,"parameterNumberName":"V-component_of_WINDS"},"data":[0,0,0,0,0,0,0,0,0,0,0,0,0,0,0,0,0,0,0,0,0,0,0,0,0,0,0,0,0,0,0,0,0,0,0,0,0,0,0,0,0,0,0,0,0,0,0,0,0,0,0,0,0,0,0,0,0,0,3.2731,3.2731,0,3.2712,3.2711,3.2711,3.2689,3.2689,3.2688,3.2688,3.2667,3.2666,3.2666,0,0,0,0,0,0,0,0,0,0,0,0,0,3.2748,3.2747,3.2731,3.2731,3.273,3.2712,3.2711,3.2711,3.2689,3.2689,3.2688,3.2688,3.2667,3.2666,3.2666,0,0,0,0,0,0,0,0,0,0,0,0,0,3.2735,3.2747,3.2731,3.2717,3.2716,3.2712,3.2711,3.2711,3.2689,3.2689,3.2688,3.2688,3.2667,3.2666,3.2666,3.2673,0,0,3.2665,3.2665,0,0,0,0,0,0,0,0,3.2736,3.2735,3.2719,3.2718,3.2717,3.2702,3.2709,3.2698,3.2689,3.2699,3.2688,3.2687,3.2679,3.2677,3.2675,3.2672,3.2671,3.2665,3.2664,3.2664,3.2664,0,0,0,0,0,0,0,3.2737,3.2736,3.2723,3.2719,3.2717,3.2712,3.2709,3.2707,3.2692,3.2698,3.2697,3.2695,3.2678,3.2675,3.2674,3.2671,3.2665,3.2664,3.2664,3.2664,3.2674,3.2674,0,0,0,0,0,0,3.274,3.2736,3.2724,3.2723,3.2725,3.2712,3.2709,3.2707,3.2692,3.2689,3.2695,3.2694,3.2676,3.2675,3.2673,3.268,3.2664,3.2664,3.2664,3.2673,3.2674,3.2674,0,0,0,0,0,0,3.2741,3.2739,3.2725,3.2729,3.2727,3.2712,3.271,3.2707,3.2704,3.269,3.2687,3.2695,3.2676,3.2674,3.2674,3.2679,3.2664,3.2663,3.2673,3.2673,3.2674,3.2695,0,0,0,0,0,0,3.2741,3.274,3.2742,3.2729,3.2727,3.2726,3.271,3.2707,3.2704,3.2702,3.2689,3.2686,3.2675,3.2674,3.2673,3.2679,3.2663,3.2672,3.2673,3.2674,3.2694,3.2697,3.2699,0,0,0,0,0,3.2742,3.2749,3.2743,3.2741,3.273,3.2726,3.2724,3.2712,3.2705,3.2707,3.2698,3.2687,3.2679,3.2674,3.2673,3.2678,3.2671,3.2673,3.2674,3.2693,3.2696,3.2699,0,0,0,0,0,0,3.2762,3.2747,3.274,3.2743,3.2736,3.2722,3.2725,3.2716,3.2711,3.2709,3.2693,3.269,3.2692,3.2685,3.268,3.2685,3.2674,3.2675,3.2689,3.2692,3.2694,3.2695,3.2663,0,0,0,0,0,3.2767,3.2766,3.2752,3.2756,3.2753,3.274,3.2738,3.2729,3.2721,3.2718,3.2708,3.27,3.2696,3.2694,3.2689,3.2693,3.269,3.2696,3.2699,3.2701,3.2701,3.2703,3.2705,3.2678,3.2678,3.2678,0,0,3.2777,3.2769,3.2768,3.276,3.2754,3.2752,3.2738,3.2736,3.2735,3.2717,3.2716,3.2709,3.27,3.2702,3.2702,3.2696,3.2709,3.2702,3.2704,3.2704,3.2704,3.2707,3.2709,3.2679,3.2679,3.2678,0,0,3.2794,3.2788,3.279,3.2785,3.2776,3.2767,3.2768,3.2755,3.275,3.2749,3.2736,3.2734,3.2727,3.2721,3.2717,3.2733,3.2722,3.2732,3.2744,3.2746,3.2748,3.275,3.2755,3.2757,3.2732,3.2733,3.2733,0,3.2808,3.2805,3.2793,3.2793,3.2789,3.2774,3.2776,3.2771,3.2761,3.2759,3.2752,3.2744,3.2736,3.2736,3.274,3.2738,3.2738,3.2732,3.2749,3.275,3.2752,3.2756,3.2758,3.2734,3.2734,3.2733,3.2733,0,3.2822,3.282,3.2823,3.2814,3.2811,3.2812,3.28,3.2798,3.279,3.2782,3.2781,3.2772,3.2765,3.2765,3.2756,3.2764,3.276,3.2752,3.274,3.2756,3.276,3.2762,3.2735,3.2735,3.2735,3.2734,0,0,3.285,3.2835,3.2836,3.2832,3.2821,3.2819,3.282,3.2814,3.2813,3.2806,3.2806,3.2801,3.2793,3.2789,3.2779,3.2781,3.2793,3.2772,3.2772,3.2776,3.28,3.2806,3.2809,3.2787,3.2787,3.2787,3.2801,0,3.2864,3.2865,3.2854,3.2857,3.2855,3.2841,3.2841,3.2835,3.2827,3.2824,3.2816,3.2813,3.2803,3.28,3.2801,3.2792,3.2798,3.2791,3.2786,3.2785,3.2787,3.2811,3.2817,3.283,3.2802,3.2803,3.2803,0,3.2881,3.2876,3.2879,3.2869,3.2868,3.2868,3.2862,3.286,3.2852,3.2846,3.2842,3.2831,3.2831,3.2821,3.2819,3.2814,3.2812,3.2807,3.2807,3.2805,3.2794,3.2809,3.2834,3.2836,3.2805,3.2805,3.2805,0,3.2901,3.2895,3.2896,3.2893,3.2881,3.2881,3.2876,3.2868,3.2865,3.286,3.2858,3.2852,3.2849,3.2844,3.2833,3.2827,3.2833,3.2822,3.2827,3.2828,3.2828,3.2828,3.2852,3.2828,3.2828,3.2828,3.2828,0,3.2918,3.292,3.2905,3.2905,3.2907,3.2895,3.2897,3.2891,3.2884,3.2882,3.287,3.2869,3.2854,3.2851,3.2843,3.2842,3.2841,3.2836,3.2834,3.2837,3.2837,3.2834,3.2833,3.2829,3.2828,3.2828,3.2828,0,3.2939,3.293,3.293,3.2918,3.2916,3.2918,3.2908,3.2907,3.29,3.2898,3.2897,3.2885,3.2881,3.2869,3.2862,3.2856,3.2859,3.2854,3.2861,3.286,3.2866,3.2865,3.2888,3.289,3.2865,3.2865,3.2866,0,3.295,3.2952,3.2941,3.294,3.2935,3.2933,3.293,3.2918,3.2916,3.2907,3.2908,3.2903,3.2899,3.2893,3.2883,3.2878,3.2873,3.2881,3.2872,3.2875,3.2872,3.2872,3.2872,3.2883,3.2883,3.2884,3.2884,0,3.2971,3.2966,3.2963,3.2958,3.2955,3.2951,3.2946,3.2945,3.2932,3.293,3.2926,3.2923,3.2916,3.2911,3.2904,3.2898,3.2889,3.2887,3.2888,3.2891,3.2895,3.2892,3.2866,3.2886,3.2886,3.2886,3.2886,3.2886,3.2987,3.2988,3.298,3.2977,3.2972,3.2968,3.2967,3.2959,3.2956,3.295,3.2943,3.294,3.2932,3.2922,3.2917,3.2914,3.2909,3.2911,3.2911,3.2911,3.2913,3.2896,3.2913,3.2913,3.2913,3.2913,3.2913,0,3.3006,3.3001,3.2998,3.2992,3.2989,3.2982,3.2975,3.2974,3.2971,3.2965,3.2961,3.2957,3.2952,3.2943,3.2937,3.2937,3.2932,3.2935,3.2935,3.2934,3.2918,3.2917,3.2939,3.2939,3.2939,3.2939,3.2939,3.2939,3.3016,3.3016,3.3011,3.3009,3.3003,3.3001,3.2998,3.2993,3.2988,3.2984,3.2981,3.2975,3.2967,3.2961,3.2956,3.2953,3.2952,3.2956,3.2952,3.2937,3.2935,3.2932,3.2932,3.2956,3.2956,3.2968,3.2968,3.2968]}]]